Detalii statie AGROIND CAUACEU DOISIG [00001986]

Toti senzorii

Date Temperatura solului [C]Precipitatii [mm]Voltaj baterie [mV]Leaf Wetness [Min]HC Air temperature [C]HC Relative humidity [%]Punctul de roua [C]
medieminmaxsumaultimatimpmedieminmaxmediemediemin
2018-12-09 15:00:00 0 6834
2018-12-09 16:00:00 0 6796
2018-12-09 17:00:00 0 6756
2018-12-09 18:00:00 0 6748
2018-12-09 19:00:00 0 6728
2018-12-09 20:00:00 0.2 6718
2018-12-09 21:00:00 0 6718
2018-12-09 22:00:00 0 6708
2018-12-09 23:00:00 0 6708
2018-12-10 00:00:00 0 6698
2018-12-10 01:00:00 0 6688
2018-12-10 02:00:00 0 6678
2018-12-10 03:00:00 0 6668
2018-12-10 04:00:00 0 6668
2018-12-10 05:00:00 0 6650
2018-12-10 06:00:00 0 6660
2018-12-10 07:00:00 0 6650
2018-12-10 08:00:00 0 6640
2018-12-10 09:00:00 0 6668
2018-12-10 10:00:00 0 6816
2018-12-10 11:00:00 0 6914
2018-12-10 12:00:00 0 6816
2018-12-10 13:00:00 0 6776
2018-12-10 14:00:00 0 6748
2018-12-10 15:00:00 0.6 6718
2018-12-10 16:00:00 0 6668
2018-12-10 17:00:00 0.6 6650
2018-12-10 18:00:00 0 6640
2018-12-10 19:00:00 0 6620
2018-12-10 20:00:00 0 6630
2018-12-10 21:00:00 1.4 6620
2018-12-10 22:00:00 0 6610
2018-12-10 23:00:00 0 6600
2018-12-11 00:00:00 0 6600
2018-12-11 01:00:00 3 6590
2018-12-11 02:00:00 3.2 6590
2018-12-11 03:00:00 0.4 6582
2018-12-11 04:00:00 0.2 6572
2018-12-11 05:00:00 0 6572
2018-12-11 06:00:00 0 6552
2018-12-11 07:00:00 0 6552
2018-12-11 08:00:00 0 6562
2018-12-11 09:00:00 0 6562
2018-12-11 10:00:00 0 6582
2018-12-11 11:00:00 0 6590
2018-12-11 12:00:00 0 6590
2018-12-11 13:00:00 0 6610
2018-12-11 14:00:00 0 6668